Temp
82 90 89 89 90 87 85 77 79 80 83 88 75 77 78 81 81 81 78 79 79 79 77 76 75 79 81 81 82 81 81 81 81 81 81 81 80 80 80 80 79 79 79
87 89 84 78 85 88 86 88 86 85 86 87 85 85 89 92 92 88 81 77 78 78 79 77 76 77 77 78 80 80 81 81 81 81 81 80 80 80 80 80 79 79 78
89 82 72 72 75 87 89 87 86 85 87 91 89 90 90 90 89 86 79 78 75 78 78 79 79 79 79 77 78 78 79 80 80 80 79 79 79 79 80 80 79 78 78
92 85 73 73 79 78 85 88 87 83 85 85 85 87 86 88 86 85 83 76 75 75 77 79 79 78 78 79 79 79 78 79 79 79 79 79 79 79 79 79 78 78 78
92 90 77 76 82 84 76 78 86 86 82 83 85 85 83 85 85 85 82 77 77 74 73 76 78 77 79 78 79 78 74 76 77 79 79 79 79 78 78 78 78 77 77
83 92 82 83 90 88 82 84 86 86 85 84 88 86 82 83 82 79 79 78 72 72 73 75 73 74 78 78 78 75 75 75 76 78 78 79 78 78 78 78 78 77 76
84 92 87 88 90 88 87 88 86 84 84 84 81 80 81 83 82 78 75 71 70 72 73 73 71 72 73 78 76 76 75 74 75 78 77 77 78 78 78 78 77 76 76
94 94 89 89 87 88 87 80 81 82 81 82 78 78 74 76 79 77 70 69 69 70 70 72 72 72 71 71 72 76 75 74 76 77 77 76 76 77 77 77 77 76 76
95 94 93 90 89 88 84 78 81 82 76 80 82 75 71 70 74 73 69 66 68 65 69 71 71 71 71 71 73 74 75 74 76 77 75 76 76 76 76 77 76 76 76
92 94 91 90 90 88 85 86 86 83 80 79 79 82 78 76 69 68 66 65 66 66 67 69 70 71 71 71 74 74 74 74 74 75 73 75 76 75 76 76 77 76 76
91 94 92 92 90 89 86 85 84 83 82 79 78 77 77 76 73 69 65 64 65 66 68 69 70 71 72 71 71 73 73 74 71 73 73 76 76 76 76 76 76 76 76
91 90 94 92 91 90 87 86 85 84 83 82 82 79 77 74 71 70 64 64 63 67 69 69 70 71 71 71 73 74 75 73 72 72 73 73 75 76 76 76 77 77 77
88 85 91 90 90 89 88 87 85 84 82 81 80 80 81 74 74 71 67 65 64 67 67 67 69 70 73 70 72 75 75 74 72 71 71 72 72 74 76 76 76 77 77
91 90 92 92 90 89 88 87 85 84 83 81 81 80 78 75 74 71 68 67 64 65 65 64 68 70 69 68 72 73 70 73 71 70 69 68 68 71 73 73 73 72 76
92 90 91 91 91 90 89 87 85 84 83 81 79 77 76 76 77 75 71 72 69 62 61 63 66 70 69 70 72 69 68 70 69 67 66 68 67 67 70 71 72 72 73
91 90 91 90 89 89 89 86 84 84 81 79 79 79 78 79 76 74 71 73 71 65 61 63 67 69 71 71 72 69 67 69 69 68 67 68 68 68 70 71 71 71 71
88 88 89 88 87 87 88 86 84 83 83 81 81 80 79 79 76 72 72 72 68 66 61 63 68 70 69 68 69 68 69 67 67 68 68 68 68 68 68 69 70 71 71
88 88 88 87 87 87 87 85 84 84 82 81 81 79 79 80 77 72 71 68 66 66 64 64 67 67 67 68 67 67 70 72 67 68 68 67 67 66 65 65 64 64 64
87 88 87 86 86 87 86 86 84 82 82 82 81 80 79 77 75 74 69 67 66 66 65 67 65 68 66 67 66 68 66 66 70 68 67 67 66 65 64 64 63 63 62
87 87 87 87 88 87 84 82 82 81 83 82 81 80 77 75 74 70 69 67 66 65 65 67 67 65 66 67 67 64 63 64 64 70 70 67 66 66 65 65 64 63 62
87 87 87 87 88 81 75 77 79 81 81 82 82 80 75 72 71 71 69 67 66 65 66 68 66 66 65 65 64 65 64 64 65 65 65 63 63 63 63 66 66 65 63
87 86 87 87 85 75 63 65 69 82 81 80 78 78 74 73 69 69 68 69 68 66 67 68 67 65 66 66 67 66 63 62 60 66 64 63 67 65 66 66 67 64 63
86 86 86 85 80 73 62 62 66 79 79 78 77 76 75 74 71 70 66 66 67 68 67 70 67 67 67 68 68 65 64 64 63 65 64 63 66 65 67 64 64 64 64
85 85 82 81 74 67 60 60 64 77 78 77 77 75 74 73 72 72 71 70 70 66 68 72 72 71 71 71 69 68 66 65 65 66 66 61 66 65 66 64 64 64 63
84 82 81 79 74 69 57 57 63 78 77 76 75 71 74 73 66 66 71 69 69 69 66 64 65 68 67 69 70 69 65 64 63 64 66 64 65 66 65 63 62 63 62
81 82 79 76 69 69 56 57 63 78 76 75 74 70 63 69 63 62 70 70 68 68 70 71 71 69 69 68 68 71 69 65 64 64 68 64 65 65 62 65 63 60 60
MSLP
1013.94 1012.82 1012.51 1012.28 1012.24 1012.65 1013.00 1013.92 1013.40 1013.39 1013.34 1011.74 1012.85 1012.04 1013.17 1013.01 1012.29 1013.67 1013.19 1013.58 1014.22 1013.84 1014.17 1015.20 1015.79 1016.32 1016.17 1016.23 1015.95 1016.61 1017.06 1017.29 1017.28 1017.46 1017.67 1018.19 1018.64 1018.95 1019.26 1019.66 1020.08 1020.32 1020.45
1012.95 1012.66 1013.16 1013.73 1013.04 1012.62 1012.70 1012.77 1012.80 1012.93 1012.62 1012.02 1012.02 1011.60 1011.67 1011.76 1011.81 1012.24 1012.95 1013.61 1014.00 1013.87 1014.73 1015.10 1015.39 1015.62 1015.87 1016.34 1016.26 1016.50 1017.07 1017.16 1016.96 1016.99 1017.35 1017.59 1018.14 1018.47 1018.93 1019.36 1019.78 1020.08 1020.44
1012.45 1013.04 1013.44 1013.77 1014.08 1012.92 1012.34 1012.29 1012.24 1012.35 1012.53 1012.11 1011.96 1011.84 1011.48 1011.36 1011.58 1011.89 1012.82 1013.40 1013.98 1013.77 1014.10 1013.87 1014.01 1014.30 1015.29 1015.35 1015.83 1016.22 1016.71 1016.91 1016.78 1016.70 1016.81 1017.20 1017.52 1018.08 1018.51 1018.98 1019.47 1019.72 1020.17
1012.33 1012.60 1013.99 1013.33 1013.49 1012.83 1012.61 1012.41 1012.05 1012.36 1012.38 1012.22 1012.07 1011.72 1011.44 1011.34 1011.40 1011.70 1012.76 1013.54 1013.87 1014.01 1014.22 1014.14 1014.19 1014.47 1014.82 1015.17 1015.24 1015.41 1016.26 1016.50 1016.37 1016.45 1016.70 1016.91 1017.29 1017.77 1018.26 1018.63 1019.24 1019.52 1019.82
1012.50 1012.52 1013.90 1013.73 1012.91 1012.89 1012.90 1012.00 1012.39 1012.44 1012.58 1012.11 1011.81 1011.42 1011.41 1011.35 1011.52 1011.89 1012.78 1013.20 1013.83 1013.64 1014.21 1014.34 1014.22 1014.17 1014.40 1014.65 1014.97 1015.42 1015.80 1016.23 1016.35 1016.52 1016.36 1016.56 1016.81 1017.50 1018.01 1018.41 1019.16 1019.45 1019.79
1012.49 1012.31 1012.44 1012.38 1012.03 1012.54 1012.71 1012.61 1012.67 1012.72 1012.31 1012.05 1011.84 1011.70 1011.77 1011.90 1012.02 1012.73 1012.97 1013.08 1013.92 1014.58 1014.61 1014.14 1014.25 1014.17 1014.19 1014.39 1014.88 1015.39 1015.78 1016.01 1016.27 1016.32 1016.36 1016.47 1016.71 1016.98 1017.75 1018.14 1018.87 1019.35 1019.75
1012.39 1011.82 1012.34 1012.20 1011.99 1012.18 1012.28 1012.78 1012.80 1012.40 1012.12 1012.02 1012.16 1012.05 1012.00 1012.26 1012.59 1013.04 1013.34 1012.71 1013.04 1013.89 1014.43 1014.32 1014.47 1014.58 1014.38 1014.35 1014.65 1015.02 1015.36 1015.77 1016.17 1016.34 1016.44 1016.31 1016.47 1016.52 1017.14 1017.79 1018.51 1019.09 1019.46
1011.58 1011.66 1012.22 1012.15 1012.24 1012.17 1012.53 1012.81 1013.20 1012.67 1012.88 1012.18 1012.44 1012.81 1012.67 1012.91 1012.75 1013.19 1013.90 1014.12 1014.55 1014.16 1014.23 1014.04 1014.30 1014.44 1014.43 1014.29 1014.38 1014.58 1014.89 1015.45 1015.81 1016.13 1016.44 1016.60 1016.83 1016.54 1016.61 1017.29 1018.07 1018.85 1019.18
1011.47 1011.48 1011.69 1012.08 1012.38 1012.42 1012.68 1012.90 1012.74 1012.44 1012.78 1012.31 1012.37 1012.84 1012.95 1012.96 1012.90 1013.25 1013.93 1013.88 1014.27 1014.16 1013.94 1013.55 1013.73 1013.71 1013.80 1013.74 1013.98 1014.00 1014.45 1015.12 1015.54 1016.00 1016.36 1016.34 1016.87 1016.90 1016.79 1017.02 1017.73 1018.52 1019.12
1011.23 1011.16 1011.24 1011.49 1011.92 1012.20 1012.15 1012.16 1012.11 1012.24 1012.30 1012.32 1012.19 1012.15 1012.60 1012.91 1013.34 1013.52 1014.18 1014.09 1013.95 1013.92 1013.88 1013.88 1013.89 1013.86 1013.47 1013.39 1013.52 1013.68 1014.26 1014.94 1015.45 1015.73 1016.10 1016.75 1017.11 1016.86 1017.09 1016.99 1017.50 1018.11 1018.74
1010.63 1010.66 1010.77 1011.11 1011.50 1011.75 1011.86 1012.06 1012.05 1012.28 1012.24 1012.19 1012.04 1011.84 1012.16 1012.41 1012.89 1013.62 1013.73 1013.92 1013.85 1013.60 1013.80 1013.94 1013.71 1013.41 1013.49 1013.55 1013.65 1013.59 1013.94 1014.65 1015.34 1015.97 1016.26 1016.58 1016.89 1016.98 1017.21 1017.08 1017.54 1017.69 1018.34
1010.48 1010.57 1010.82 1011.08 1011.42 1011.54 1011.71 1011.93 1012.03 1012.00 1011.90 1011.88 1011.83 1011.84 1011.77 1011.95 1012.22 1012.65 1013.51 1013.78 1013.82 1013.51 1013.55 1013.56 1013.70 1013.69 1013.70 1013.64 1013.47 1013.55 1013.87 1014.48 1015.13 1015.61 1016.14 1016.63 1016.90 1017.07 1017.27 1017.47 1017.42 1017.58 1018.08
1010.28 1010.66 1011.01 1011.16 1011.32 1011.52 1011.70 1011.78 1011.75 1011.69 1011.52 1011.59 1011.62 1011.58 1011.36 1011.44 1011.58 1011.92 1012.86 1013.31 1013.53 1013.49 1013.64 1013.91 1014.00 1013.90 1013.75 1013.66 1013.49 1013.58 1013.89 1014.39 1015.14 1015.80 1016.25 1016.70 1017.11 1017.32 1017.43 1017.41 1017.34 1017.41 1017.88
1010.39 1010.80 1010.87 1011.00 1011.17 1011.40 1011.56 1011.58 1011.54 1011.40 1011.28 1011.22 1011.22 1011.22 1011.18 1011.09 1010.92 1011.42 1012.09 1012.69 1013.23 1013.38 1013.64 1014.19 1013.92 1013.82 1014.10 1014.15 1014.08 1014.18 1014.27 1014.64 1015.22 1015.86 1016.47 1016.89 1017.41 1017.55 1017.55 1017.66 1017.62 1017.64 1017.88
1010.45 1010.45 1010.64 1010.85 1011.13 1011.28 1011.38 1011.42 1011.38 1011.26 1011.23 1011.24 1011.20 1010.97 1010.98 1010.60 1010.43 1010.51 1011.43 1011.85 1012.13 1013.18 1013.51 1013.74 1013.53 1013.98 1014.06 1014.40 1014.41 1014.73 1015.18 1015.44 1015.65 1016.10 1016.69 1017.10 1017.45 1017.74 1018.00 1018.00 1017.99 1017.99 1018.03
1010.26 1010.42 1010.66 1010.97 1011.11 1011.17 1011.22 1011.30 1011.27 1011.14 1011.18 1011.04 1010.94 1010.83 1010.48 1010.30 1010.27 1010.66 1011.30 1011.58 1012.01 1012.75 1013.51 1013.62 1013.84 1014.13 1014.13 1014.62 1014.68 1015.05 1015.65 1015.87 1016.24 1016.52 1017.07 1017.40 1017.78 1018.05 1018.16 1018.19 1018.26 1018.36 1018.40
1010.20 1010.41 1010.62 1010.89 1011.01 1011.00 1011.02 1011.09 1011.19 1011.01 1010.82 1010.77 1010.64 1010.55 1010.35 1010.15 1010.29 1010.87 1011.25 1011.58 1012.23 1012.76 1013.20 1014.27 1013.99 1014.34 1014.69 1015.05 1015.28 1015.63 1015.82 1016.28 1016.70 1017.07 1017.33 1017.60 1017.84 1018.14 1018.18 1018.20 1018.31 1018.53 1018.52
1010.04 1010.20 1010.41 1010.62 1010.71 1010.73 1010.80 1010.96 1010.95 1010.79 1010.76 1010.71 1010.49 1010.45 1010.19 1009.95 1010.21 1010.91 1011.43 1012.06 1012.60 1013.06 1013.55 1014.04 1014.05 1014.38 1014.80 1015.21 1015.66 1015.93 1015.92 1016.34 1016.93 1017.39 1017.65 1017.73 1018.06 1018.38 1018.53 1018.54 1018.67 1018.73 1018.76
1009.57 1009.78 1009.89 1010.15 1010.36 1010.47 1010.66 1010.71 1010.80 1010.95 1010.77 1010.58 1010.53 1010.44 1010.45 1010.45 1010.59 1010.80 1011.60 1012.27 1012.82 1013.13 1013.16 1013.66 1014.45 1014.51 1015.12 1015.46 1015.87 1016.10 1016.40 1016.59 1016.92 1017.62 1017.90 1018.08 1018.19 1018.35 1018.54 1018.80 1018.82 1018.85 1018.94
1009.05 1009.30 1009.50 1009.68 1009.94 1010.21 1010.42 1010.83 1010.95 1010.95 1010.58 1010.54 1010.60 1010.69 1010.88 1011.03 1011.02 1011.34 1011.91 1012.63 1013.18 1013.42 1013.85 1014.09 1014.29 1014.77 1015.29 1015.62 1015.78 1016.31 1016.67 1016.91 1017.21 1017.31 1017.78 1018.13 1018.43 1018.58 1018.70 1018.80 1018.84 1018.90 1018.92
1008.56 1008.88 1009.08 1009.32 1009.69 1010.34 1011.18 1011.21 1011.19 1010.89 1010.64 1010.58 1010.63 1010.81 1011.36 1011.44 1011.26 1011.61 1012.01 1012.65 1013.08 1013.34 1013.67 1013.86 1014.36 1014.89 1015.19 1015.51 1015.71 1016.04 1016.47 1016.86 1017.06 1017.26 1017.84 1018.30 1018.48 1018.65 1018.76 1018.80 1019.02 1019.14 1019.12
1008.06 1008.43 1008.63 1008.83 1009.48 1010.79 1011.41 1011.51 1011.48 1010.77 1010.69 1010.83 1011.00 1011.14 1011.55 1011.80 1011.98 1011.98 1012.27 1012.66 1013.00 1013.47 1013.68 1013.71 1014.08 1014.57 1014.89 1015.07 1015.35 1015.88 1016.40 1016.90 1017.28 1017.16 1017.47 1017.86 1017.95 1018.27 1018.30 1018.55 1018.77 1019.13 1019.25
1007.60 1007.93 1008.19 1008.58 1009.51 1010.61 1011.20 1011.53 1011.42 1010.96 1010.94 1011.09 1011.26 1011.31 1011.58 1012.14 1012.39 1012.62 1012.89 1013.18 1013.52 1013.94 1014.00 1013.66 1013.90 1014.04 1014.38 1014.73 1015.09 1015.62 1016.23 1016.52 1016.58 1016.89 1017.33 1017.41 1017.51 1017.86 1017.89 1018.48 1018.73 1019.06 1019.19
1006.97 1007.56 1008.16 1008.90 1009.91 1010.93 1011.32 1011.23 1011.07 1011.07 1011.05 1011.26 1011.39 1011.65 1011.80 1012.16 1012.45 1012.86 1013.22 1013.53 1013.77 1013.98 1013.70 1013.27 1013.13 1013.43 1013.83 1014.39 1014.98 1015.52 1015.81 1016.38 1016.58 1016.73 1017.00 1017.36 1017.42 1017.59 1017.94 1018.41 1018.69 1018.85 1019.17
1006.43 1007.19 1007.87 1008.79 1009.90 1011.14 1011.35 1010.88 1010.79 1010.61 1010.99 1011.16 1011.53 1011.97 1011.90 1012.22 1012.62 1012.89 1013.18 1013.68 1013.91 1014.04 1013.80 1013.61 1013.32 1013.43 1013.97 1014.41 1014.83 1015.55 1016.11 1016.36 1016.67 1016.82 1016.94 1017.03 1017.21 1017.54 1018.03 1018.61 1018.84 1019.00 1019.06
1005.91 1006.70 1007.81 1008.58 1009.61 1010.71 1010.86 1010.67 1010.57 1010.31 1010.49 1011.03 1011.42 1011.90 1012.19 1012.59 1012.92 1013.07 1013.02 1013.41 1013.76 1013.94 1013.97 1013.97 1014.18 1014.31 1014.44 1014.81 1014.98 1015.18 1015.63 1015.94 1016.22 1016.45 1016.43 1016.87 1017.17 1017.49 1017.91 1018.39 1018.71 1019.14 1019.37
Wind_Speed
8 4 1 3 2 3 1 8 5 4 8 8 13 10 12 13 11 7 5 20 18 10 13 19 10 13 10 10 9 10 12 14 14 16 17 17 16 15 14 14 13 13 12
4 2 5 7 7 0 3 1 3 6 5 5 5 5 7 2 7 7 8 8 15 15 12 14 12 11 7 2 4 2 12 15 16 16 16 19 17 16 14 17 16 13 13
3 8 4 4 6 7 2 5 6 4 3 3 4 4 2 5 4 10 13 8 9 14 14 20 22 21 13 11 8 5 12 13 13 16 17 17 18 16 16 18 17 17 14
4 6 5 2 7 7 4 5 2 3 3 4 4 3 2 3 9 10 9 6 3 4 14 19 15 18 17 16 11 11 7 9 11 15 15 17 17 18 17 19 19 18 16
6 5 7 7 8 5 3 1 5 4 3 3 5 5 6 4 6 10 6 9 5 4 3 9 15 14 15 13 12 12 7 10 5 17 15 15 16 17 19 20 19 18 18
6 3 3 3 4 5 4 2 3 3 5 0 4 5 4 4 5 6 5 8 9 9 6 3 4 4 10 11 12 11 11 11 13 15 12 12 13 15 18 21 21 20 18
11 4 4 7 5 1 1 1 3 3 4 2 3 3 3 5 6 4 1 4 8 3 5 3 1 1 3 9 9 13 18 15 14 12 9 9 10 13 17 21 22 22 20
4 1 5 4 6 3 2 6 9 3 7 2 1 1 3 1 3 3 4 6 5 2 5 2 1 5 4 4 8 14 18 18 14 9 9 6 5 6 12 18 22 22 23
4 3 1 2 2 3 2 6 9 4 3 4 3 2 3 3 2 3 3 4 2 3 4 4 4 4 5 5 9 10 16 19 13 10 7 4 5 5 7 15 21 23 23
6 6 7 6 3 3 6 5 3 3 4 5 3 4 5 3 3 3 1 2 4 4 5 2 3 4 4 3 8 13 15 13 12 12 12 7 7 5 5 11 17 22 23
7 6 5 3 2 3 4 5 5 4 3 4 4 4 3 4 4 4 5 2 2 4 3 2 4 1 3 3 2 7 20 19 19 18 18 16 10 6 7 5 15 18 20
6 6 4 3 1 2 3 4 4 5 4 5 5 6 5 3 4 3 2 3 3 2 1 2 2 2 2 3 3 8 15 18 17 16 13 11 10 7 5 6 8 16 20
1 5 5 4 2 2 3 4 4 5 6 4 5 5 5 7 6 2 2 2 2 0 2 2 2 2 3 3 4 4 14 13 12 10 11 8 3 5 5 4 3 11 18
5 4 2 2 3 4 4 4 4 4 6 4 6 4 5 7 6 3 3 4 2 1 1 3 1 2 4 4 10 13 7 11 13 14 12 11 3 2 3 3 5 4 15
5 5 4 2 2 3 4 4 4 5 5 5 6 7 6 6 4 4 5 4 4 2 1 1 2 3 5 5 6 6 7 11 15 16 11 12 11 5 3 1 2 4 5
3 3 1 2 4 4 3 3 4 5 5 5 4 6 5 5 6 5 4 3 3 3 2 1 1 4 5 6 6 7 8 12 13 15 12 11 11 7 5 3 3 2 3
4 4 3 3 4 5 3 3 4 7 4 6 6 5 6 5 4 5 3 3 5 3 3 2 3 6 5 5 7 6 6 7 6 11 10 10 9 7 5 4 5 4 3
7 6 5 5 5 4 4 3 5 5 6 8 6 6 6 4 5 5 4 6 5 3 3 7 6 4 6 5 5 4 4 7 6 8 7 7 9 9 8 7 8 6 3
8 7 6 7 5 5 3 2 5 6 5 5 6 7 9 10 8 5 7 6 4 4 3 6 5 4 3 5 4 2 5 5 6 11 9 7 6 8 8 9 10 8 3
8 7 6 5 5 4 5 6 4 5 3 5 5 6 8 7 6 8 7 8 6 4 2 5 5 5 4 5 4 4 3 3 5 6 8 8 8 8 7 6 8 8 5
8 7 6 7 5 7 4 4 3 4 4 4 4 7 8 9 8 8 7 8 7 5 3 5 4 5 4 5 5 4 4 4 3 4 5 4 4 4 4 5 7 8 6
9 8 8 7 6 7 6 4 2 2 3 7 7 6 7 8 8 8 12 10 7 6 3 4 3 4 6 4 3 5 3 3 2 1 3 4 6 6 5 5 10 10 8
9 8 8 6 8 8 8 4 2 3 4 5 5 4 6 6 7 8 9 10 7 2 4 2 6 6 5 4 5 5 5 4 2 4 3 3 4 4 5 6 13 12 10
9 8 8 9 8 6 2 3 3 3 4 6 5 6 5 7 5 8 7 6 3 5 5 4 5 6 5 5 6 4 5 4 2 4 4 2 2 3 5 4 10 10 11
9 10 9 10 9 5 2 4 4 7 6 6 6 5 2 8 5 5 6 5 4 3 6 10 9 8 12 11 7 6 3 5 3 3 4 3 2 2 5 5 4 8 10
12 10 10 11 12 6 2 3 2 4 9 6 5 6 11 8 6 6 1 7 4 3 3 4 7 8 7 6 5 2 4 2 2 2 4 3 3 3 1 4 4 4 3
Wind_Direction
234 252 51 282 355 72 3 142 225 243 265 259 104 207 221 232 233 195 178 171 172 147 175 192 251 271 222 216 193 215 218 209 204 201 200 198 201 199 188 181 171 160 129
264 302 24 354 326 219 239 217 203 217 231 248 175 209 232 323 30 113 151 164 195 190 164 128 145 206 166 332 334 231 263 234 216 206 199 196 201 202 193 185 174 166 164
233 70 73 319 306 313 332 231 257 293 292 316 19 332 338 39 67 65 119 148 187 199 170 193 201 192 190 167 192 181 254 256 239 222 206 198 194 194 191 188 188 183 181
211 145 94 76 266 288 305 339 282 7 5 347 330 271 58 358 101 77 77 132 139 202 198 195 206 199 194 203 178 175 207 278 266 246 215 205 192 194 197 184 186 188 167
242 100 118 249 233 188 148 89 308 13 338 350 325 2 7 3 64 80 90 113 124 208 196 233 216 193 184 185 192 177 156 276 285 249 217 203 190 189 191 186 187 183 174
290 268 184 243 269 144 151 214 343 297 282 184 324 347 341 14 79 93 105 95 69 17 327 264 249 189 175 194 193 181 181 209 236 238 210 202 194 184 190 188 189 190 183
206 215 165 226 224 177 123 315 285 306 321 152 341 354 8 94 92 73 347 79 113 147 283 303 33 235 234 208 205 208 184 203 229 224 201 191 188 182 185 188 190 192 183
255 216 317 9 12 2 132 51 296 310 335 101 56 357 317 166 168 134 50 55 29 327 278 84 216 219 237 208 208 214 186 195 202 187 211 174 204 171 183 183 186 185 185
254 168 125 280 289 274 103 189 241 95 244 338 101 172 279 261 350 126 115 116 330 297 270 229 245 249 268 216 219 216 192 183 198 164 117 154 206 186 181 180 188 190 189
194 215 198 201 223 318 302 306 38 5 352 317 313 243 224 240 261 308 54 272 240 263 273 270 288 280 290 303 219 205 179 182 170 149 141 207 219 180 194 197 184 192 194
212 235 235 179 209 224 295 329 349 343 284 270 282 320 218 226 231 215 291 315 249 247 241 260 267 302 346 321 259 200 175 177 159 173 177 183 184 169 183 171 195 191 194
209 215 230 184 242 299 311 339 338 300 278 280 297 299 282 270 277 248 218 259 256 316 130 204 49 24 326 300 217 186 186 172 177 179 165 173 174 167 178 179 188 190 194
88 187 208 174 227 351 313 301 297 285 278 291 280 282 303 307 318 28 152 166 250 39 75 52 21 12 360 38 78 140 193 185 180 171 176 136 165 183 182 158 173 190 198
334 95 133 56 14 336 299 300 287 292 298 314 303 326 292 294 301 167 170 159 158 215 81 65 311 71 71 77 87 75 76 143 132 122 127 112 114 332 79 53 59 329 192
277 270 6 347 276 313 305 317 295 312 352 340 312 317 307 308 315 323 150 179 147 170 272 133 103 102 136 101 97 97 84 103 121 115 117 128 112 92 267 249 61 58 194
233 322 358 321 298 297 299 297 294 334 329 311 315 310 315 319 336 95 148 169 118 128 109 161 161 133 107 101 119 88 113 103 105 118 133 127 137 171 192 194 158 147 118
260 261 256 263 275 271 274 284 313 281 318 312 311 340 317 333 359 104 132 99 110 97 142 66 87 110 112 108 96 114 137 109 110 124 129 131 134 125 106 114 154 166 133
227 225 221 232 246 265 273 325 309 336 355 330 347 340 331 346 62 142 122 109 128 89 97 125 126 131 111 113 119 164 147 126 123 130 127 125 120 113 106 98 97 102 98
216 226 215 212 224 241 277 293 36 357 317 346 0 348 20 21 12 104 114 121 116 115 150 137 129 123 115 124 133 148 89 104 117 139 138 133 119 116 114 108 104 104 92
215 217 224 240 203 233 55 45 15 310 343 10 16 20 39 24 1 108 121 118 118 134 147 124 153 130 143 160 159 137 129 145 136 152 155 153 150 141 141 129 113 102 96
217 223 213 221 196 80 54 30 1 303 41 15 9 55 62 42 60 122 129 139 145 143 169 128 133 147 155 172 171 171 132 156 116 139 128 151 156 169 169 192 132 117 103
209 204 212 203 153 95 76 60 335 333 41 27 46 38 86 65 61 104 123 138 142 144 191 145 121 160 175 174 154 152 126 141 143 231 166 171 178 185 165 186 153 133 117
196 201 201 142 102 99 45 353 334 291 71 57 51 34 74 88 95 108 93 97 105 21 276 242 171 175 162 178 134 139 147 191 155 145 169 188 166 125 120 125 141 145 128
184 184 137 121 119 91 45 307 9 243 112 86 45 56 107 120 133 127 139 130 94 50 10 350 164 164 162 144 141 137 144 123 78 152 155 146 149 159 143 128 157 149 137
173 148 142 134 122 129 42 15 352 178 140 110 90 58 57 113 147 66 121 128 99 59 49 40 61 111 115 121 133 118 159 152 154 170 188 165 151 128 139 150 160 164 146
152 144 145 135 130 151 144 66 21 244 153 135 124 119 64 96 72 63 64 145 140 125 97 97 73 69 83 131 119 125 164 219 127 155 181 145 135 132 61 101 140 159 155